Regional Weather Roundup
Issued by NWS

Home | Current Version | Previous Version | Graphics & Text | Print | Product List | Glossary On
Versions: 1 2 3 4 5 6 7 8 9 10 11 12 13 14 15 16 17 18 19 20 21 22 23 24 25 26 27 28 29 30 31 32 33 34 35 36 37 38 39 40 41 42 43 44 45 46 47 48 49 50
000
ASUS45 KCYS 190510
RWRWY

WYOMING REGIONAL WEATHER ROUNDUP
NATIONAL WEATHER SERVICE CHEYENNE WY
1100 PM MDT WED APR 18 2018

NOTE:  "FAIR" INDICATES FEW OR NO CLOUDS BELOW 12,000 FEET
WITH NO SIGNIFICANT WEATHER AND/OR OBSTRUCTIONS TO VISIBILITY.

WYZ001-190600-
YELLOWSTONE NATIONAL PARK

CITY           SKY/WX    TMP DP  RH WIND       PRES   REMARKS
LK YELLOWSTONE   N/A     23  12  62 CALM      30.17S
W YELLOWSTONE  NOT AVBL

$$
WYZ002>013-054>058-071-098>099-190600-
NORTHERN WYOMING

CITY           SKY/WX    TMP DP  RH WIND       PRES   REMARKS
JACKSON        FAIR      32  19  58 CALM      30.12S
CODY           FAIR      38  24  57 SW3       30.17S
GREYBULL       FAIR      45  30  55 SE3       30.13F
WORLAND        FAIR      42  30  62 SE10      30.13F
SHERIDAN       FAIR      34  25  69 S5        30.21F WCI  30
BUFFALO        FAIR      37  20  50 SW6       30.23F WCI  32
GILLETTE       FAIR      30  24  78 SW3       30.23F
HULETT         FAIR      36  28  75 E5        30.26F WCI  32
NEWCASTLE      FAIR      41  19  42 NE10      30.26F

$$
WYZ014>020-022>026-101>103-190600-
CENTRAL WYOMING

CITY           SKY/WX    TMP DP  RH WIND       PRES   REMARKS
BIG PINEY      FAIR      32  -1  24 E7        30.12S WCI  26
PINEDALE       FAIR      32  12  43 E3        30.14S
DUBOIS         FAIR      32  12  43 CALM      30.14S
LANDER         FAIR      41  20  43 W12       30.10F
RIVERTON       FAIR      39  21  48 S6        30.11F WCI  35
CASPER         FAIR      36  20  52 E14       30.19F WCI  27
DOUGLAS        FAIR      34  25  69 SE8       30.25S WCI  27

$$
WYZ021-027>030-104>119-190600-
SOUTHERN WYOMING

CITY           SKY/WX    TMP DP  RH WIND       PRES   REMARKS
EVANSTON       FAIR      40   8  26 SE5       30.06F
KEMMERER       FAIR      36   1  23 E6        30.08F WCI  31
FORT BRIDGER   FAIR      35  -1  21 W6        30.09F WCI  30
ROCK SPRINGS   FAIR      38   8  29 SE12      30.10F WCI  30
DIXON          FAIR      35  18  50 NE6       30.15F WCI  30
RAWLINS        FAIR      37  11  34 NE6       30.16F WCI  32
SARATOGA       FAIR      36  10  35 S7        30.16F WCI  30
LARAMIE        FAIR      33  16  49 E14       30.22S WCI  23
CHEYENNE       FAIR      34  17  50 E5        30.27S WCI  30
TORRINGTON     FAIR      33  23  66 E9        30.26R WCI  25
PINE BLUFFS    FAIR      28  19  69 MISG      30.28S

$$



USA.gov is the U.S. government's official web portal to all federal, state and local government web resources and services.